CAPE
5 0 0 1 0 0 5 4 0 0 0 0 0 0 0 0 0 0 0 0 0 0 0 0 0 0 0 0 0 0 0 0 0 0 0 0 0 0 0 0 0 0 0 0
9 1 0 0 4 5 4 9 3 0 0 0 0 0 0 0 0 0 0 0 0 0 0 0 0 0 0 0 0 0 0 0 0 0 0 0 0 0 0 0 0 0 0 0
1 0 0 3 7 7 10 9 6 0 0 0 0 0 0 0 0 0 0 0 0 0 0 0 0 0 0 0 0 0 0 0 0 0 0 0 0 0 0 0 0 0 0 0
46 5 2 2 7 6 2 4 4 1 0 0 0 0 0 0 0 0 0 0 0 0 0 0 0 0 0 0 0 0 0 0 0 0 0 0 0 0 0 0 0 0 0 0
0 7 9 0 6 0 0 0 2 4 1 0 0 0 0 0 0 0 0 0 0 0 0 0 0 0 0 0 0 0 0 0 0 0 0 0 0 0 0 0 0 0 0 0
0 0 12 23 0 0 9 1 3 0 0 0 0 0 0 0 0 0 0 0 0 0 0 0 0 0 0 0 0 0 0 0 0 0 0 0 0 0 0 0 0 0 0 0
0 0 0 1 16 0 1 0 0 0 0 0 0 0 0 0 0 0 0 0 0 0 0 0 0 0 0 0 0 0 0 0 0 0 0 0 0 0 0 0 0 0 0 0
0 3 0 0 2 0 0 0 0 0 0 0 0 0 0 0 0 0 0 0 0 0 0 0 0 0 0 0 0 0 0 0 0 0 0 0 0 0 0 0 0 0 0 0
0 0 0 0 0 0 1 0 0 0 0 0 0 0 0 0 0 0 0 0 0 0 0 0 0 0 0 0 0 0 0 0 0 0 0 0 0 0 0 0 0 0 0 0
0 0 0 0 0 0 0 0 0 0 0 0 0 0 0 0 0 0 0 0 0 0 0 0 0 0 0 0 0 0 0 0 0 0 0 0 0 0 0 0 0 0 0 0
0 0 4 3 2 0 0 0 0 0 0 0 0 0 0 0 0 0 0 0 0 0 0 0 0 0 0 0 0 0 0 0 0 0 0 0 0 0 0 0 0 0 0 0
0 0 0 0 0 0 0 0 0 0 0 0 0 0 0 0 0 0 0 0 0 0 0 0 0 0 0 0 0 0 0 0 0 0 0 0 0 0 0 0 0 0 0 0
0 0 1 1 0 0 0 0 0 0 0 0 0 0 0 0 0 0 0 0 0 0 0 0 0 0 0 0 0 0 0 0 0 0 0 0 0 0 0 0 0 0 0 0
0 0 0 0 0 0 0 0 0 0 0 0 0 0 0 0 0 0 0 0 0 0 0 0 0 0 0 0 0 0 0 0 0 0 0 0 0 0 0 0 0 0 0 0
0 0 0 0 0 0 0 0 0 0 0 0 0 0 0 0 0 0 0 0 0 0 0 0 0 0 0 0 0 0 0 0 0 0 0 0 0 0 0 0 0 0 0 0
0 0 0 0 0 0 0 0 0 0 0 0 0 0 0 0 0 0 0 0 0 0 0 0 0 0 0 0 0 0 0 0 0 0 0 0 0 0 0 0 0 0 0 0
0 0 0 0 0 0 0 0 0 0 0 0 0 0 0 0 0 0 0 0 0 0 0 0 0 0 0 0 0 0 0 0 0 0 0 0 0 0 0 0 0 0 0 0
0 0 0 0 0 0 0 0 0 0 0 0 0 0 0 0 0 0 0 0 0 0 0 0 0 0 0 0 0 0 0 0 0 0 0 0 0 0 0 0 0 0 0 0
0 0 0 0 0 0 0 0 0 0 0 0 0 0 0 0 0 0 0 0 0 0 0 0 0 0 0 0 0 0 0 0 0 0 0 0 0 0 0 0 0 0 0 0
0 0 0 0 0 0 0 0 0 0 0 0 0 0 0 0 0 0 0 0 0 0 0 0 0 0 0 0 0 0 0 0 0 0 0 0 0 0 0 0 0 0 0 0
0 0 0 0 0 0 0 0 0 0 0 0 0 0 0 0 0 0 0 0 0 0 0 0 0 0 0 0 0 0 0 0 0 0 0 0 0 0 0 0 0 0 0 0
0 0 0 0 0 0 0 0 0 0 0 0 0 0 0 0 0 0 0 0 0 0 0 0 0 0 0 0 0 0 0 0 0 0 0 0 0 0 0 0 0 0 0 0
0 0 0 0 0 0 0 0 0 0 0 0 0 0 0 0 0 0 0 0 0 0 0 0 0 0 0 0 0 0 0 0 0 0 0 0 0 0 0 0 0 0 0 0
0 0 0 0 0 0 0 0 0 0 0 0 0 0 0 0 0 0 0 0 0 0 0 0 0 0 0 0 0 0 0 0 0 0 0 0 0 0 0 0 0 0 0 0
0 0 0 0 0 0 0 0 0 0 0 0 0 0 0 0 0 0 0 0 0 0 0 0 0 0 0 0 0 0 0 0 0 0 0 0 0 0 0 0 0 0 0 0
0 0 0 0 0 0 0 0 0 0 0 0 0 0 0 0 0 0 0 0 0 0 0 0 0 0 0 0 0 0 0 0 0 0 0 0 0 0 0 0 0 0 0 0
CIN
-1 0 0 -2 0 0 -2 -1 0 0 0 0 0 0 0 0 0 0 0 0 0 0 0 0 0 0 0 0 0 0 0 0 0 0 0 0 0 0 0 0 0 0 0 0
-1 0 0 0 -7 -2 0 0 0 0 0 0 0 0 0 0 0 0 0 0 0 0 0 0 0 0 0 0 0 0 0 0 0 0 0 0 0 0 0 0 0 0 0 0
0 0 0 -1 -4 0 0 0 0 0 0 0 0 0 0 0 0 0 0 0 0 0 0 0 0 0 0 0 0 0 0 0 0 0 0 0 0 0 0 0 0 0 0 0
-1 -29 -40 -10 -9 -5 -1 -3 -2 -2 0 0 0 0 0 0 0 0 0 0 0 0 0 0 0 0 0 0 0 0 0 0 0 0 0 0 0 0 0 0 0 0 0 0
0 -12 -22 -1 -9 -1 -2 0 0 0 0 0 0 0 0 0 0 0 0 0 0 0 0 0 0 0 0 0 0 0 0 0 0 0 0 0 0 0 0 0 0 0 0 0
0 0 -39 -28 0 0 -40 -2 -1 -1 0 0 0 0 0 0 0 0 0 0 0 0 0 0 0 0 0 0 0 0 0 0 0 0 0 0 0 0 0 0 0 0 0 0
-8 0 0 -29 -50 0 -14 0 0 0 0 0 0 0 0 0 0 0 0 0 0 0 0 0 0 0 0 0 0 0 0 0 0 0 0 0 0 0 0 0 0 0 0 0
-4 -2 0 0 -25 0 0 0 0 0 0 0 0 0 0 0 0 0 0 0 0 0 0 0 0 0 0 0 0 0 0 0 0 0 0 0 0 0 0 0 0 0 0 0
0 0 0 0 0 -8 -3 0 0 0 0 0 0 0 0 0 0 0 0 0 0 0 0 0 0 0 0 0 0 0 0 0 0 0 0 0 0 0 0 0 0 0 0 0
0 0 0 0 0 0 0 0 0 0 0 0 0 0 0 0 0 0 0 0 0 0 0 0 0 0 0 0 0 0 0 0 0 0 0 0 0 0 0 0 0 0 0 0
0 0 -3 -4 -3 0 0 0 0 0 0 0 0 0 0 0 0 0 0 0 0 0 0 0 0 0 0 0 0 0 0 0 0 0 0 0 0 0 0 0 0 0 0 0
0 0 0 -1 0 0 0 0 0 0 0 0 0 0 0 0 0 0 0 0 0 0 0 0 0 0 0 0 0 0 0 0 0 0 0 0 0 0 0 0 0 0 0 0
0 0 0 -6 0 0 0 0 0 0 0 0 0 0 0 0 0 0 0 0 0 0 0 0 0 0 0 0 0 0 0 0 0 0 0 0 0 0 0 0 0 0 0 0
0 0 0 0 0 0 -3 0 0 0 0 0 0 0 0 0 0 0 0 0 0 0 0 0 0 0 0 0 0 0 0 0 0 0 0 0 0 0 0 0 0 0 0 0
0 0 0 0 0 0 0 0 0 0 0 0 0 0 0 0 0 0 0 0 0 0 0 0 0 0 0 0 0 0 0 0 0 0 0 0 0 0 0 0 0 0 0 0
0 0 0 0 0 0 0 0 0 0 0 0 0 0 0 0 0 0 0 0 0 0 0 0 0 0 0 0 0 0 0 0 0 0 0 0 0 0 0 0 0 0 0 0
0 0 0 0 0 0 0 0 0 0 0 0 0 0 0 0 0 0 0 0 0 0 0 0 0 0 0 0 0 0 0 0 0 0 0 0 0 0 0 0 0 0 0 0
0 0 0 0 0 0 0 0 0 0 0 0 0 0 0 0 0 0 0 0 0 0 0 0 0 0 0 0 0 0 0 0 0 0 0 0 0 0 0 0 0 0 0 0
0 0 0 0 0 0 0 0 0 0 0 0 0 0 0 0 0 0 0 0 0 0 0 0 0 0 0 0 0 0 0 0 0 0 0 0 0 0 0 0 0 0 0 0
0 0 0 0 0 0 0 0 0 0 0 0 0 0 0 0 0 0 0 0 0 0 0 0 0 0 0 0 0 0 0 0 0 0 0 0 0 0 0 0 0 0 0 0
0 0 0 0 0 0 0 0 0 0 0 0 0 0 0 0 0 0 0 0 0 0 0 0 0 0 0 0 0 0 0 0 0 0 0 0 0 0 0 0 0 0 0 0
0 0 0 0 0 0 0 0 0 0 0 0 0 0 0 0 0 0 0 0 0 0 0 0 0 0 0 0 0 0 0 0 0 0 0 0 0 0 0 0 0 0 0 0
0 0 0 0 0 0 0 0 0 0 0 0 0 0 0 0 0 0 0 0 0 0 0 0 0 0 0 0 0 0 0 0 0 0 0 0 0 0 0 0 0 0 0 0
0 0 0 0 0 0 0 0 0 0 0 0 0 0 0 0 0 0 0 0 0 0 0 0 0 0 0 0 0 0 0 0 0 0 0 0 0 0 0 0 0 0 0 0
0 0 0 0 0 0 0 0 0 0 0 0 0 0 0 0 0 0 0 0 0 0 0 0 0 0 0 0 0 0 0 0 0 0 0 0 0 0 0 0 0 0 0 0
0 0 0 0 0 0 0 0 0 0 0 0 0 0 0 0 0 0 0 0 0 0 0 0 0 0 0 0 0 0 0 0 0 0 0 0 0 0 0 0 0 0 0 0
Wind_Speed
19 21 25 23 25 32 29 28 26 22 22 23 24 19 18 18 16 14 12 8 6 6 8 11 12 11 10 11 13 16 16 17 18 17 18 18 17 21 22 21 21 23 23 23
22 28 20 18 18 25 27 29 27 24 20 21 22 19 18 14 17 16 13 12 11 11 12 13 14 14 14 17 19 21 23 23 23 23 24 23 23 24 25 26 24 24 25 26
27 23 17 16 16 15 26 28 26 24 22 20 24 28 26 21 18 18 20 18 16 17 16 16 17 18 21 23 24 25 25 25 25 25 24 24 24 25 26 27 26 26 26 27
32 25 21 20 22 14 18 18 19 23 25 28 24 32 32 27 27 25 20 21 22 17 17 20 21 23 24 25 25 25 25 24 25 26 25 26 27 27 26 26 26 26 27 29
30 27 26 26 20 16 18 12 15 18 21 24 26 28 29 28 28 25 25 21 15 16 18 21 21 20 21 22 23 23 23 23 24 24 24 24 25 25 26 27 28 28 28 27
30 25 25 24 16 18 12 12 14 16 18 30 27 26 28 26 26 22 19 15 16 16 16 16 17 16 17 18 20 20 20 22 23 23 23 23 24 25 26 27 27 28 28 27
30 31 29 22 19 19 16 18 23 26 28 28 24 27 30 19 18 15 13 13 13 13 12 12 13 14 16 17 19 20 21 23 23 23 24 24 24 25 26 26 27 29 29 29
38 39 31 28 29 25 22 23 26 32 31 27 21 28 27 24 19 12 12 10 11 10 9 9 11 13 15 17 19 20 22 23 24 24 25 25 25 26 27 27 29 29 30 30
36 35 27 26 25 23 28 28 23 22 22 24 24 25 25 16 14 12 12 12 10 8 8 10 12 15 17 19 20 22 23 24 25 25 26 27 27 27 28 29 29 30 31 31
27 31 27 25 22 27 30 21 29 27 32 33 28 27 25 21 17 15 14 14 11 9 9 10 14 16 19 21 22 23 24 24 25 26 26 27 28 28 29 30 31 32 32 33
25 28 28 25 32 35 27 31 26 23 25 30 30 30 22 20 21 18 15 13 9 8 9 11 15 17 19 21 23 23 25 26 28 28 28 28 29 29 29 30 31 32 33 34
25 26 30 32 24 23 25 29 27 30 30 28 27 27 19 20 18 13 15 12 11 10 11 13 18 19 20 21 23 25 25 27 28 28 28 28 29 30 31 32 34 35 36 36
24 26 30 29 27 25 31 27 26 24 24 31 33 30 18 15 13 12 11 12 12 11 13 18 20 21 20 22 24 24 26 27 28 28 28 29 31 33 34 35 36 37 39 40
16 22 30 36 32 22 30 27 25 25 31 28 27 19 14 13 13 14 15 15 16 17 19 21 22 22 22 23 25 26 27 29 29 29 30 32 34 35 37 38 40 41 41 42
15 23 17 16 18 21 22 24 23 27 25 29 26 25 21 18 22 24 26 25 24 25 25 23 22 23 23 25 26 26 27 29 30 31 32 33 35 37 39 40 40 40 41 41
15 20 16 18 15 16 22 20 22 23 25 28 29 32 26 28 29 32 35 32 30 28 22 20 21 22 23 24 25 26 28 30 30 32 33 36 38 40 40 40 40 41 43 44
10 11 15 22 18 18 25 22 20 21 21 23 30 27 25 27 28 26 28 28 26 18 16 18 20 22 22 23 24 28 30 32 34 35 37 39 40 40 40 40 42 43 44 44
10 8 11 18 16 27 20 18 18 21 23 22 24 27 27 28 27 25 25 22 19 16 17 19 20 21 21 24 28 31 33 35 35 37 38 39 39 39 40 41 42 43 43 44
11 12 12 17 21 20 19 16 15 16 19 21 25 29 29 26 20 25 22 20 19 19 19 20 20 21 24 28 32 34 35 35 36 37 37 38 38 39 40 41 43 43 43 44
12 13 16 16 22 26 20 18 18 16 24 20 20 22 23 20 28 27 20 19 18 18 19 21 23 25 29 31 33 34 36 36 36 37 36 37 38 39 41 42 44 43 42 42
20 21 21 20 23 25 20 19 17 24 25 18 19 20 21 24 24 20 18 19 19 20 22 24 27 30 31 31 32 34 32 34 33 35 36 38 39 40 40 41 41 41 42 42
23 22 22 20 23 29 15 17 22 20 17 18 20 20 23 22 20 19 19 20 22 23 25 27 29 30 29 29 30 31 32 33 35 37 38 38 38 37 37 39 40 42 43 45
25 23 23 22 23 18 15 16 15 15 18 18 20 23 22 21 20 20 22 23 24 25 25 26 28 28 27 28 30 33 33 34 35 36 36 36 37 38 40 42 44 45 45 47
22 17 24 23 23 23 22 21 19 16 17 20 22 21 20 21 20 20 20 20 20 20 20 23 25 26 26 28 30 30 30 32 34 37 38 38 40 42 41 41 43 45 47 48
19 15 20 24 25 25 26 21 20 21 19 19 19 9 10 17 17 17 11 4 12 16 18 19 19 20 23 26 27 27 29 31 35 37 38 40 41 42 43 42 44 45 43 44
17 19 19 25 18 20 22 17 18 20 27 28 25 21 16 14 13 3 3 9 7 7 12 16 19 22 24 26 28 30 30 33 36 38 39 40 41 42 43 45 46 41 42 43
Wind_Direction
245 250 247 247 245 242 241 242 237 245 248 245 241 246 251 253 255 258 264 254 260 284 300 304 300 309 317 322 322 319 319 321 318 318 317 318 317 317 317 317 317 318 319 319
238 243 251 250 251 244 240 236 241 245 247 244 245 247 258 258 258 260 265 269 275 289 294 303 310 314 315 315 317 318 316 316 316 315 315 316 318 319 318 320 320 320 319 318
231 240 240 244 244 254 236 237 238 243 248 252 251 252 255 262 263 264 267 273 281 289 288 296 303 305 305 306 310 313 316 318 318 318 318 318 319 319 319 319 320 320 321 320
237 237 231 241 240 243 245 243 245 249 249 246 254 254 254 260 260 260 266 271 278 286 294 293 297 300 304 307 313 314 318 320 319 320 319 317 316 317 321 323 324 322 322 321
236 229 230 236 240 239 251 242 253 255 251 253 254 256 259 264 263 263 265 275 283 290 293 296 302 308 313 316 319 322 326 327 326 326 326 324 323 324 324 323 323 323 323 324
234 235 235 240 240 255 240 238 262 266 262 253 256 258 264 263 263 262 266 274 289 297 302 309 315 321 326 329 330 334 336 336 334 334 333 332 329 328 327 326 326 326 327 328
227 235 241 235 237 247 227 240 257 256 254 258 264 261 261 271 277 267 268 284 296 306 314 319 324 328 333 337 337 337 339 338 340 339 338 337 336 333 330 329 328 327 326 326
228 230 231 236 237 239 239 252 254 254 256 262 269 262 270 272 279 279 280 292 304 312 327 336 337 338 338 339 340 339 340 338 337 336 335 336 335 332 331 330 329 328 327 327
229 238 239 240 243 234 243 249 261 262 268 265 265 271 277 286 289 281 286 294 298 303 322 330 331 334 335 337 339 339 338 336 335 334 332 332 332 332 330 329 329 328 327 327
236 232 241 242 249 249 247 246 252 260 256 260 266 269 273 270 280 288 292 291 289 291 306 326 328 329 332 335 336 337 337 337 336 335 335 334 333 333 332 331 329 329 328 328
232 240 239 238 246 240 240 243 257 259 264 260 264 271 285 285 282 287 295 296 290 287 297 316 324 328 334 337 337 337 336 336 335 335 334 335 335 335 335 335 334 333 331 330
240 242 237 241 258 257 251 247 251 253 258 264 270 273 291 294 296 297 305 304 304 298 302 313 320 323 330 334 335 335 334 334 335 335 336 336 337 336 336 335 333 332 330 330
232 241 236 244 252 255 246 249 254 264 267 261 263 273 295 305 315 320 318 313 317 315 311 313 318 323 328 330 332 334 335 335 337 337 336 335 334 333 333 332 332 331 329 327
243 244 243 241 246 247 245 250 253 261 261 265 270 277 298 311 309 312 312 314 309 307 307 310 315 322 325 328 330 331 332 333 334 335 334 333 333 332 331 330 329 328 328 327
247 240 245 252 256 248 247 246 252 256 264 267 275 275 286 298 299 298 299 300 301 301 303 308 314 318 324 326 330 332 333 334 335 335 334 333 332 331 330 330 330 330 330 329
254 241 243 252 265 261 253 257 261 267 271 276 280 280 289 291 295 295 295 296 298 299 303 310 316 321 324 329 332 334 334 336 337 335 333 331 330 330 331 331 330 329 328 327
237 229 240 246 261 263 260 260 265 273 279 280 278 288 293 295 297 300 302 302 302 307 310 314 319 323 326 333 335 334 333 333 332 332 330 331 331 331 332 331 330 329 329 329
223 237 267 250 259 256 272 283 276 276 282 282 287 286 289 291 296 302 305 308 313 314 314 317 321 325 332 333 332 331 331 331 331 331 332 333 333 331 331 331 331 330 331 330
255 255 262 257 257 276 277 279 282 284 289 289 283 287 292 299 302 303 313 316 315 316 318 321 327 330 330 329 329 330 331 333 334 334 334 333 333 332 332 332 331 331 331 330
265 268 265 266 265 266 278 285 288 291 287 299 304 306 308 311 297 302 312 317 319 322 323 323 325 327 327 329 331 331 330 331 332 333 334 334 334 333 332 332 331 332 332 331
254 260 263 272 277 284 287 291 297 284 292 305 312 317 319 314 313 317 318 318 320 320 320 323 323 323 326 330 333 331 334 334 335 334 334 334 333 332 333 333 334 334 334 333
259 264 272 281 282 281 297 295 288 299 307 310 317 322 322 322 321 320 319 318 319 318 319 321 322 323 327 332 333 334 334 335 335 333 334 335 336 337 338 337 336 336 334 332
265 270 276 277 288 303 305 307 310 315 309 315 319 321 322 319 317 317 316 316 316 319 321 325 325 327 331 331 332 332 333 335 337 338 339 339 339 339 338 336 335 334 333 332
279 286 282 286 291 287 292 297 300 308 311 315 319 321 321 319 319 319 321 324 327 332 335 334 332 334 335 334 335 338 341 341 340 338 338 338 337 336 336 336 335 333 332 331
284 288 284 286 286 290 290 295 297 300 308 317 320 278 201 208 214 216 207 13 352 346 345 346 346 346 342 341 341 343 343 341 337 337 336 336 336 335 335 335 334 333 333 333
277 278 280 281 297 297 297 304 306 294 257 248 234 221 202 193 201 143 29 3 11 12 359 353 347 343 341 340 338 338 339 338 336 335 336 336 335 335 335 334 333 336 335 335